Location: Gloden
(48.4833°N, 15.3167°E)
Time: 13:10:44
(UTC+00:00)

ATLAS CENTAUR R/B - Pass Details

Date: 15 December 2019
Orbit: 454 x 694 km, 64.6° (Epoch: 20 January)

Event Time Altitude Azimuth Distance (km) Brightness Sun altitude
Exits shadow 04:42:42 33° 335° (NNW) 957 2.2 -18.9°
Maximum altitude 04:44:26 68° 48° (NE) 591 1.5 -18.7°
Drops below altitude 10° 04:48:20 10° 133° (SE) 1,743 4.8 -18.0°
Sets 04:50:25 0° 136° (SE) 2,590 5.8 -17.7°
